Wind_Speed
7 7 8 10 9 11 14 17 22 25 28 35 41 40 45 49 47 51 47 46 43 42 43 43 45 47 49 51 53 56 60 59 52 51 48 43 42 43 39 28 13 6 13
8 7 9 11 12 13 16 20 23 26 30 34 40 45 47 52 51 51 49 52 48 45 42 44 46 48 50 50 52 57 59 55 48 48 39 37 36 35 34 27 19 12 14
10 8 9 10 12 15 19 22 25 29 33 35 40 44 48 52 51 52 53 55 49 47 46 46 48 47 48 50 52 56 58 51 48 42 38 35 36 31 28 28 25 20 21
12 11 12 13 15 17 21 24 27 31 35 36 39 45 51 52 52 51 53 53 53 49 47 48 48 47 47 49 50 54 55 48 44 41 38 33 33 36 31 29 31 26 27
13 13 13 16 17 19 21 25 29 33 35 38 42 47 52 52 50 50 53 56 53 50 49 46 47 49 47 49 48 51 53 44 41 37 38 37 34 37 39 30 28 31 39
14 16 17 19 21 21 22 26 31 34 37 41 45 48 50 49 48 48 52 56 58 53 48 44 46 48 47 47 46 49 50 43 38 35 33 34 30 29 29 29 28 28 30
19 19 21 20 24 25 25 27 32 36 39 43 45 47 50 48 45 48 53 59 59 51 45 44 47 47 46 44 44 47 47 42 39 36 34 33 32 33 33 32 32 33 30
23 22 24 24 25 25 26 28 33 37 41 43 45 49 49 44 44 49 55 59 55 46 45 49 50 48 45 42 42 45 45 39 37 37 36 34 32 33 33 33 33 35 36
24 24 27 27 25 26 28 32 35 38 42 43 46 49 45 41 45 50 56 55 49 46 48 47 50 47 43 41 40 42 44 42 39 37 36 36 36 35 33 35 35 34 34
29 29 28 28 28 29 31 33 36 39 41 45 46 43 40 42 46 51 54 54 50 47 53 50 50 45 41 39 38 40 42 41 39 39 37 37 39 38 39 38 38 37 37
30 30 30 30 29 31 32 36 38 39 43 44 41 38 39 42 47 51 54 56 53 56 59 54 48 42 39 37 37 39 40 40 39 37 37 37 39 39 42 42 43 41 40
32 32 32 31 31 32 35 39 39 41 42 38 36 37 40 42 49 52 55 55 58 56 56 52 50 41 36 36 37 38 40 41 41 39 39 37 37 38 39 41 43 44 43
35 34 34 31 31 32 36 37 40 40 37 36 36 38 41 46 49 51 55 58 58 58 60 58 49 43 33 33 35 37 39 40 41 40 39 39 37 37 39 40 41 42 43
39 35 32 29 32 33 33 34 36 36 35 36 37 40 44 46 49 51 54 56 58 58 57 54 49 39 30 32 34 37 39 39 40 40 40 41 40 38 37 39 38 36 36
43 38 33 30 31 32 31 32 32 34 36 36 39 42 45 48 50 53 56 56 61 58 59 56 47 36 30 32 34 36 39 40 42 41 40 40 39 37 36 36 37 37 35
40 37 30 30 31 31 30 32 34 36 37 39 42 45 47 50 51 55 57 59 61 62 61 52 42 32 31 32 35 38 39 40 41 41 40 39 38 37 36 35 36 37 36
38 32 28 32 31 31 31 35 38 39 41 40 42 46 48 49 52 55 58 60 62 62 54 48 40 33 31 32 36 38 39 40 41 42 41 40 40 39 36 36 34 34 36
30 30 31 33 34 35 36 38 40 41 43 43 43 46 47 49 52 55 56 59 59 54 49 44 36 32 31 31 36 39 41 42 43 43 42 41 40 39 37 36 35 33 32
30 30 32 34 37 40 41 42 44 45 46 45 45 47 48 50 53 56 56 57 58 53 48 42 34 33 30 33 37 39 41 42 44 43 42 43 40 38 37 36 35 35 33
31 33 35 37 40 44 46 47 47 50 49 48 48 49 52 52 54 55 57 56 55 49 44 41 36 31 30 35 38 40 42 43 42 43 44 42 41 39 37 35 35 34 33
34 35 38 40 43 45 49 50 51 54 52 49 49 51 53 54 55 57 57 55 52 46 45 40 29 29 34 36 38 41 42 44 45 44 44 43 40 39 37 36 35 34 33
40 41 43 43 45 47 50 52 54 56 53 51 51 53 54 53 55 56 54 50 48 45 42 31 29 34 38 40 43 43 44 44 43 43 45 44 41 39 38 36 34 33 32
39 43 44 45 49 51 54 55 56 58 54 52 52 54 54 54 54 52 47 45 43 41 35 28 32 37 39 40 42 42 44 46 46 45 44 42 40 38 36 34 32 30 30
42 45 48 50 53 54 55 57 60 59 54 53 53 53 53 54 52 49 44 40 40 38 31 31 35 37 39 41 41 42 45 46 45 42 41 40 37 34 33 31 31 29 28
47 50 51 53 54 55 57 60 59 55 53 53 53 53 53 50 48 46 40 38 36 31 30 33 37 38 39 38 40 43 46 43 40 41 40 37 33 32 31 30 30 28 27
50 52 54 56 59 61 62 59 55 55 54 54 52 51 47 45 45 41 37 34 28 29 31 35 36 37 36 37 41 45 41 39 39 38 35 32 31 30 30 30 31 32 32
Wind_Direction
5 0 7 15 15 7 4 3 2 356 353 353 345 347 347 346 350 352 352 353 345 341 339 337 338 335 331 332 334 335 337 338 331 324 330 332 331 345 350 3 358 284 251
339 336 359 3 0 1 356 358 351 347 345 346 340 344 345 342 349 349 351 347 345 343 338 337 339 336 333 334 338 337 339 337 333 332 331 333 338 342 346 342 339 312 288
327 342 346 350 353 354 353 352 347 343 340 341 339 341 339 338 345 345 342 343 344 340 338 337 339 338 334 338 338 337 341 339 341 342 337 335 336 341 344 345 337 321 301
334 334 339 343 341 338 344 344 337 337 337 338 338 336 337 336 342 341 339 339 340 339 339 337 339 338 337 337 337 340 343 341 348 351 350 350 347 357 1 353 345 323 311
322 322 318 320 323 325 329 328 330 334 333 332 334 333 332 334 338 339 336 340 340 338 336 338 342 342 336 336 339 341 344 346 347 355 357 359 357 357 357 350 339 336 343
314 309 301 305 311 313 315 319 325 327 326 329 330 330 328 330 335 335 333 339 341 338 338 340 343 338 334 335 340 342 345 349 349 349 354 354 350 349 352 356 0 356 343
293 297 289 294 300 301 308 313 319 322 323 325 327 325 325 327 333 329 331 335 337 335 339 341 342 336 331 333 338 341 342 350 354 351 350 351 352 351 352 354 353 355 355
276 285 289 289 289 291 305 310 315 318 320 324 323 321 322 328 328 325 331 334 336 342 341 341 341 334 330 332 335 339 339 346 352 352 353 353 354 353 352 353 355 352 348
277 278 280 282 282 295 306 310 313 315 317 318 318 317 322 325 323 327 331 335 340 343 341 338 339 334 328 328 332 336 337 338 338 344 348 353 354 354 354 353 352 352 348
288 280 280 279 284 296 304 309 308 313 312 313 314 316 321 321 320 323 325 331 333 337 341 340 336 330 326 328 329 332 335 336 333 335 338 337 340 343 347 349 348 348 347
298 289 286 282 290 297 302 303 309 310 311 310 313 316 317 317 317 320 325 329 330 328 334 334 334 328 322 325 326 329 331 334 333 332 330 332 334 339 342 343 343 341 344
301 295 289 285 290 295 301 305 308 310 308 310 312 313 314 314 314 318 323 326 330 332 336 332 331 325 318 321 326 328 328 330 333 333 332 331 331 332 334 336 337 339 338
296 295 288 286 289 295 300 306 308 307 307 309 308 308 310 311 315 319 323 325 326 330 331 330 328 324 315 319 325 328 326 329 331 331 330 328 328 327 328 332 334 336 338
294 295 292 294 292 296 304 308 308 309 307 307 308 308 308 309 314 320 323 324 326 329 332 329 326 323 313 319 325 327 326 329 329 328 328 329 329 330 330 329 330 330 332
292 291 292 291 294 303 306 313 314 314 309 308 308 308 307 308 315 321 319 320 326 329 330 330 327 319 314 318 323 325 327 329 330 329 328 329 328 328 328 328 326 326 327
286 287 289 289 296 300 306 317 318 319 317 313 311 312 308 310 315 317 319 321 325 329 329 326 324 315 314 318 322 325 326 326 329 329 328 328 328 328 327 328 326 323 322
280 281 286 289 294 303 309 319 319 318 319 316 314 312 311 313 314 314 317 321 326 328 326 324 322 314 316 320 322 323 323 323 326 329 328 328 327 326 325 327 326 322 321
273 279 284 288 295 304 311 316 318 317 317 314 312 311 310 312 312 316 319 322 326 328 325 324 317 315 317 319 321 321 323 323 324 326 326 325 324 324 324 325 325 322 319
267 275 283 290 296 301 307 312 317 317 314 312 311 313 312 311 313 317 320 323 325 324 327 325 314 311 320 323 321 322 323 324 324 325 323 323 323 323 322 323 324 324 321
266 274 280 287 292 299 301 306 313 315 313 310 311 312 312 313 315 318 320 321 325 324 329 324 315 317 321 322 323 324 324 324 325 325 323 322 321 322 322 322 322 322 321
267 275 279 284 289 292 296 303 309 313 311 309 310 310 311 311 315 318 320 324 325 326 330 326 317 319 322 322 325 325 325 326 326 326 325 324 323 322 322 321 321 321 321
269 273 274 278 284 288 293 300 305 309 309 307 306 307 311 313 315 318 322 325 325 327 327 323 320 323 324 327 329 327 328 327 328 329 329 328 325 321 320 320 320 321 320
266 268 272 276 280 285 292 297 301 306 304 303 304 308 312 314 317 319 324 324 325 326 322 321 322 323 325 328 327 330 330 328 329 329 330 328 324 323 323 323 323 322 320
264 265 268 273 280 285 290 295 299 301 301 302 305 309 311 314 316 319 324 323 322 320 316 318 319 323 328 329 330 330 328 327 327 329 329 327 327 328 329 328 327 327 325
260 264 270 274 278 283 288 293 296 296 298 301 305 309 313 314 315 318 320 319 319 312 310 318 321 326 328 329 329 328 328 327 327 327 328 330 332 333 334 334 332 331 329
264 268 271 274 278 282 286 290 292 294 297 301 306 310 310 311 312 314 316 316 308 304 312 317 323 326 329 329 329 327 329 328 327 329 333 334 336 338 336 333 331 329 327
Height
5938 5937 5936 5935 5934 5934 5933 5931 5929 5926 5923 5919 5913 5910 5905 5900 5894 5887 5880 5872 5865 5859 5852 5846 5839 5832 5824 5814 5802 5790 5778 5766 5755 5746 5736 5725 5715 5702 5688 5676 5669 5668 5672
5937 5936 5935 5934 5933 5932 5931 5929 5927 5924 5920 5918 5912 5907 5902 5896 5890 5883 5876 5869 5861 5854 5847 5840 5833 5825 5815 5805 5794 5782 5770 5757 5748 5737 5728 5718 5710 5698 5690 5681 5675 5672 5672
5935 5934 5933 5933 5932 5931 5929 5927 5925 5921 5918 5914 5909 5904 5899 5892 5886 5879 5872 5865 5857 5850 5842 5835 5827 5818 5809 5798 5788 5776 5764 5751 5742 5731 5723 5714 5705 5696 5687 5683 5678 5674 5671
5933 5932 5931 5931 5930 5929 5928 5925 5922 5918 5914 5910 5906 5901 5895 5888 5881 5875 5867 5860 5853 5845 5837 5829 5820 5812 5804 5795 5784 5772 5761 5749 5737 5728 5719 5711 5703 5696 5688 5682 5675 5671 5666
5931 5930 5930 5929 5928 5927 5926 5923 5919 5915 5911 5907 5902 5896 5890 5883 5876 5870 5862 5855 5847 5839 5830 5822 5814 5806 5799 5791 5780 5769 5758 5747 5737 5728 5720 5712 5704 5697 5690 5683 5676 5670 5661
5929 5928 5927 5926 5925 5924 5922 5920 5916 5912 5908 5903 5897 5891 5885 5878 5872 5866 5858 5850 5841 5833 5824 5816 5807 5800 5792 5784 5776 5767 5758 5748 5737 5728 5720 5713 5707 5700 5694 5687 5678 5670 5663
5927 5926 5925 5924 5922 5921 5919 5916 5912 5908 5904 5898 5892 5886 5880 5873 5867 5861 5854 5845 5835 5826 5819 5811 5803 5795 5787 5779 5772 5764 5756 5747 5738 5729 5720 5713 5705 5698 5692 5684 5677 5668 5661
5923 5922 5921 5920 5918 5916 5914 5911 5907 5903 5898 5892 5886 5880 5874 5869 5862 5856 5849 5840 5830 5822 5814 5807 5798 5790 5782 5775 5768 5760 5753 5745 5737 5729 5720 5712 5704 5698 5690 5685 5678 5670 5660
5918 5917 5916 5915 5913 5911 5909 5906 5902 5897 5892 5886 5881 5874 5869 5864 5857 5851 5844 5835 5826 5817 5810 5801 5793 5784 5776 5770 5764 5757 5750 5742 5734 5727 5719 5711 5704 5696 5689 5682 5676 5670 5663
5913 5911 5910 5910 5908 5906 5904 5900 5895 5891 5885 5880 5875 5869 5864 5858 5852 5845 5838 5830 5822 5813 5806 5796 5787 5779 5771 5765 5759 5752 5744 5738 5730 5722 5715 5708 5701 5694 5686 5679 5671 5665 5658
5908 5906 5905 5904 5902 5900 5897 5893 5889 5884 5879 5874 5869 5863 5858 5853 5845 5838 5831 5823 5815 5807 5798 5789 5781 5773 5766 5759 5753 5747 5740 5733 5726 5719 5712 5705 5697 5690 5683 5674 5667 5660 5653
5900 5900 5899 5897 5895 5893 5890 5886 5882 5877 5872 5867 5862 5857 5852 5846 5839 5831 5823 5815 5808 5800 5791 5783 5775 5766 5760 5754 5748 5742 5736 5728 5721 5714 5707 5701 5695 5688 5680 5674 5665 5656 5648
5893 5892 5892 5890 5888 5886 5883 5879 5875 5870 5865 5860 5855 5850 5845 5838 5831 5824 5817 5810 5802 5793 5785 5776 5767 5759 5754 5748 5742 5736 5730 5723 5716 5709 5703 5696 5690 5684 5678 5669 5662 5654 5645
5884 5884 5884 5883 5881 5879 5876 5873 5867 5863 5858 5853 5849 5844 5838 5831 5825 5818 5811 5803 5795 5787 5777 5768 5759 5752 5748 5742 5736 5731 5724 5718 5712 5705 5698 5691 5685 5678 5672 5667 5659 5654 5647
5876 5875 5876 5876 5874 5872 5870 5866 5861 5856 5851 5846 5842 5836 5830 5823 5818 5813 5804 5796 5788 5779 5769 5760 5753 5746 5740 5735 5730 5724 5719 5713 5706 5699 5693 5686 5680 5674 5667 5662 5656 5648 5642
5867 5867 5868 5868 5867 5865 5862 5858 5853 5848 5844 5839 5835 5829 5823 5818 5813 5805 5797 5788 5780 5771 5761 5753 5745 5739 5735 5729 5724 5719 5713 5707 5701 5694 5688 5682 5676 5669 5663 5656 5650 5643 5637
5859 5859 5860 5860 5860 5857 5854 5850 5845 5841 5837 5832 5827 5822 5816 5811 5805 5798 5789 5780 5772 5763 5753 5745 5739 5734 5730 5725 5719 5714 5707 5701 5695 5690 5683 5676 5670 5664 5657 5651 5645 5639 5631
5852 5852 5852 5852 5851 5849 5846 5842 5838 5834 5829 5825 5820 5814 5809 5803 5796 5789 5780 5772 5764 5755 5745 5739 5734 5730 5724 5720 5714 5707 5702 5696 5689 5682 5676 5669 5663 5657 5651 5645 5638 5633 5627
5844 5845 5844 5844 5843 5841 5838 5835 5831 5826 5821 5816 5811 5806 5800 5794 5787 5779 5772 5764 5757 5747 5739 5733 5728 5723 5718 5713 5707 5701 5696 5690 5683 5676 5669 5663 5656 5650 5644 5638 5632 5626 5620
5836 5837 5837 5836 5835 5832 5829 5826 5822 5818 5812 5807 5802 5796 5791 5784 5778 5770 5763 5756 5748 5739 5733 5727 5721 5716 5711 5706 5701 5695 5689 5681 5675 5668 5661 5655 5648 5642 5637 5631 5626 5620 5615
5827 5828 5828 5828 5826 5823 5820 5817 5813 5809 5804 5799 5793 5788 5782 5776 5769 5762 5755 5749 5740 5732 5726 5720 5716 5711 5706 5700 5693 5687 5681 5675 5668 5661 5654 5647 5641 5635 5629 5624 5619 5614 5609
5818 5819 5819 5818 5816 5813 5810 5808 5804 5799 5794 5789 5784 5779 5773 5767 5760 5752 5746 5740 5732 5725 5719 5716 5712 5706 5700 5695 5690 5683 5675 5667 5660 5652 5645 5640 5634 5627 5622 5617 5612 5608 5603
5810 5809 5809 5808 5806 5803 5800 5798 5793 5789 5785 5780 5774 5769 5764 5758 5751 5742 5737 5731 5724 5718 5713 5711 5706 5701 5695 5688 5683 5675 5668 5662 5654 5646 5639 5633 5626 5621 5615 5611 5606 5602 5597
5800 5799 5798 5796 5794 5792 5790 5786 5783 5779 5775 5769 5765 5760 5755 5748 5741 5735 5730 5723 5717 5712 5709 5705 5699 5694 5689 5684 5677 5670 5663 5656 5648 5640 5633 5627 5621 5615 5610 5605 5601 5597 5592
5788 5787 5786 5784 5782 5781 5778 5775 5773 5768 5764 5760 5755 5750 5745 5739 5733 5727 5721 5715 5709 5705 5702 5699 5694 5689 5684 5678 5671 5665 5657 5651 5643 5636 5628 5622 5617 5611 5605 5601 5596 5592 5588
5775 5774 5773 5772 5770 5769 5766 5764 5762 5757 5753 5749 5745 5740 5735 5729 5724 5718 5713 5708 5703 5700 5697 5693 5687 5683 5678 5672 5666 5660 5652 5645 5638 5631 5624 5619 5613 5608 5603 5597 5592 5587 5583